TimeMDT,TemperatureF,Dew PointF,Humidity,Sea Level PressureIn,VisibilityMPH,Wind Direction,Wind SpeedMPH,Gust SpeedMPH,PrecipitationIn,Events,Conditions,WindDirDegrees,DateUTC
12:53 AM,52.0,42.1,69,29.66,10.0,North,5.8,-,N/A,,Scattered Clouds,10,2013-05-22 06:53:00
1:53 AM,51.1,43.0,74,29.68,10.0,NW,3.5,-,N/A,,Overcast,320,2013-05-22 07:53:00
2:53 AM,51.1,42.1,71,29.65,10.0,East,8.1,-,N/A,,Mostly Cloudy,90,2013-05-22 08:53:00
3:53 AM,52.0,41.0,66,29.61,10.0,NE,4.6,-,N/A,,Mostly Cloudy,40,2013-05-22 09:53:00
4:53 AM,52.0,37.9,59,29.60,10.0,Calm,Calm,-,N/A,,Partly Cloudy,0,2013-05-22 10:53:00
5:53 AM,52.0,39.0,61,29.59,10.0,Calm,Calm,-,N/A,,Clear,0,2013-05-22 11:53:00
6:53 AM,51.1,35.1,54,29.64,10.0,SSW,8.1,18.4,N/A,,Partly Cloudy,200,2013-05-22 12:53:00
7:53 AM,50.0,34.0,54,29.67,10.0,SSW,12.7,-,N/A,,Partly Cloudy,210,2013-05-22 13:53:00
8:53 AM,50.0,36.0,59,29.68,10.0,SSW,12.7,-,N/A,,Clear,200,2013-05-22 14:53:00
9:53 AM,52.0,36.0,54,29.68,10.0,SW,12.7,-,N/A,,Clear,220,2013-05-22 15:53:00
10:53 AM,54.0,37.0,53,29.68,10.0,SSW,11.5,-,N/A,,Clear,210,2013-05-22 16:53:00
11:53 AM,54.0,36.0,51,29.70,10.0,SW,12.7,-,N/A,,Clear,220,2013-05-22 17:53:00
12:53 PM,52.0,35.1,53,29.73,10.0,South,11.5,20.7,N/A,,Partly Cloudy,190,2013-05-22 18:53:00
1:53 PM,54.0,36.0,51,29.72,10.0,South,11.5,20.7,N/A,,Partly Cloudy,190,2013-05-22 19:53:00
2:53 PM,57.0,33.1,40,29.72,10.0,SSW,18.4,26.5,N/A,,Partly Cloudy,210,2013-05-22 20:53:00
3:53 PM,57.9,30.0,35,29.72,10.0,SSW,18.4,26.5,N/A,,Partly Cloudy,200,2013-05-22 21:53:00
4:53 PM,55.9,30.0,37,29.73,10.0,SSW,13.8,21.9,N/A,,Mostly Cloudy,200,2013-05-22 22:53:00
5:53 PM,55.9,30.0,37,29.74,10.0,South,11.5,18.4,N/A,,Overcast,190,2013-05-22 23:53:00
6:53 PM,55.0,28.9,37,29.77,10.0,South,15.0,20.7,N/A,,Mostly Cloudy,190,2013-05-23 00:53:00
7:53 PM,52.0,26.1,37,29.78,10.0,SSW,11.5,-,N/A,,Overcast,200,2013-05-23 01:53:00
8:53 PM,48.9,25.0,39,29.83,10.0,South,10.4,-,N/A,,Mostly Cloudy,190,2013-05-23 02:53:00
9:53 PM,46.0,23.0,40,29.84,10.0,South,10.4,-,N/A,,Partly Cloudy,180,2013-05-23 03:53:00
10:53 PM,46.0,34.0,63,29.85,10.0,WSW,9.2,-,N/A,,Overcast,250,2013-05-23 04:53:00
11:53 PM,44.1,36.0,73,29.87,10.0,WSW,12.7,-,N/A,,Overcast,250,2013-05-23 05:53:00